Location: Corsier
(46.2637°N, 6.2238°E)
Time: 07:16:44
(UTC+00:00)

STARLINK-1207 - Pass Details

Date: 07 June 2020
Orbit: 548 x 551 km, 53.0° (Epoch: 12 July)

Event Time Altitude Azimuth Distance (km) Brightness Sun altitude
Exits shadow 23:52:03 37° 114° (ESE) 867 4.4 -20.8°
Drops below altitude 10° 23:55:14 10° 70° (ENE) 1,820 6.6 -20.8°
Enters shadow 00:56:07 -61° 242° (WSW) 11,813 10.3 -18.5°
Maximum altitude 01:30:51 52° 338° (NNW) 689 4.3 -16.1°
